CAS-2T & KS-1Q

Last updated on Fri Jul 11 2025 00:03:04 GMT+0000 (Coordinated Universal Time)

1 41847U 16066G 25191.45866857 .00001047 00000+0 15602-3 0 9998 2 41847 98.4194 265.6495 0346999 85.1423 278.9289 14.43574738455477
UTC large
Height (km)
Speed (km/s)
/
Latitude / Longitude
Inclination (degrees)
Orbital Period (minutes)
Azimuth
Elevation
Range (km)
Doppler Factor

Next 0 passes for location: London (51.5072 / 0.1276)

Sorry there are no passes over London.